Retour au catalogue

DELTA 1 DEB

ActifSSO
NORAD 17765·DEBRIS·🇺🇸 United States

Lancé Mar 5, 1978 depuis Vandenberg Space Force Base

Loading…

Prochains Passages (prochaines 24 heures)

TLE

FraisSource: Space-Track

Époque: Sep 13, 2026, 18:27 UTC

1 17765U 78026GX  26256.76910771 -.00000004  00000-0  26998-4 0  9991
2 17765  99.0302 350.4278 0042197  54.6909  76.2227 13.98914694112347

Suivez DELTA 1 DEB en temps réel avec AllMySat

Download on the App Store